Location: Bailleul
(50.3375°N, 2.8513°E)
Time: 04:31:49
(UTC+00:00)

Cosmos 2237 Rocket - Pass Details

Date: 19 April 2021
Orbit: 836 x 849 km, 71.0° (Epoch: 09 May)

Event Time Altitude Azimuth Distance (km) Brightness Sun altitude
Rises 21:01:59 0° 327° (NNW) 3,406 6.9 -18.4°
Reaches altitude 10° 21:04:30 10° 322° (NW) 2,465 5.9 -18.7°
Maximum altitude 21:09:53 47° 250° (WSW) 1,099 2.9 -19.3°
Enters shadow 21:13:07 23° 188° (S) 1,719 3.4 -19.6°
